SB KEPS @ AMSAT $ORB16056.N 2Line Orbital Elements 16056.AMSAT
HR AMSAT ORBITAL ELEMENTS FOR AMATEUR SATELLITES IN NASA FORMAT FROM WA5QGD FORT WORTH,TX February 25, 2016 BID: ORB16056.N
DECODE 2-LINE ELSETS WITH THE FOLLOWING KEY: 1 AAAAAU 00 0 0 BBBBB.BBBBBBBB .CCCCCCCC 00000-0 00000-0 0 DDDZ 2 AAAAA EEE.EEEE FFF.FFFF GGGGGGG HHH.HHHH III.IIII JJ.JJJJJJJJKKKKKZ KEY: A-CATALOGNUM B-EPOCHTIME C-DECAY D-ELSETNUM E-INCLINATION F-RAAN G-ECCENTRICITY H-ARGPERIGEE I-MNANOM J-MNMOTION K-ORBITNUM Z-CHECKSUM
TO ALL RADIO AMATEURS BT
AO-07 1 07530U 74089B 16056.77665887 -.00000046 00000-0 -13933-4 0 9990 2 07530 101.5607 30.3347 0011996 167.9099 260.0896 12.53619745889036 FO-29 1 24278U 96046B 16056.77421167 -.00000026 00000-0 69351-5 0 9999 2 24278 98.5791 356.7238 0351129 133.5982 229.4872 13.53064087964314 RS-22 1 27939U 03042A 16056.67564058 .00000337 00000-0 69356-4 0 9994 2 27939 97.8702 212.7956 0011879 306.0216 53.9895 14.66330871663330 HO-68 1 36122U 09072B 16056.72224900 -.00000059 00000-0 -43517-4 0 9996 2 36122 100.1583 97.0663 0006970 253.0278 107.0063 13.16332683297814 AO-73 1 39444U 13066AE 16055.78857640 .00000807 00000-0 10804-3 0 9993 2 39444 97.6964 113.9074 0059772 32.8047 327.6854 14.80885400120798 EO-79 1 40025U 14033R 16056.68672395 .00001026 00000-0 11831-3 0 9992 2 40025 97.9369 322.1367 0014163 74.8279 285.4502 14.87821643 91473 XW-2A 1 40903U 15049E 16056.87615891 .00004791 00000-0 14145-3 0 9997 2 40903 97.4507 70.7146 0016124 170.9377 310.0825 15.35339951 24316 XW-2C 1 40906U 15049H 16056.91002130 .00002008 00000-0 11664-3 0 9993 2 40906 97.4549 66.4331 0017707 66.9167 340.0887 15.13118830 24028 LILACSAT-2 1 40908U 15049K 16056.91512270 .00001057 00000-0 64644-4 0 9996 2 40908 97.4609 66.4061 0018330 59.8953 345.9958 15.12252832 24016 XW-2E 1 40909U 15049L 16056.73940568 .00003369 00000-0 18941-3 0 9998 2 40909 97.4544 66.3799 0016986 71.2644 38.2614 15.13843453 24008 UO-11 1 14781U 84021B 16056.73895944 .00000324 00000-0 46617-4 0 9990 2 14781 97.7653 112.0953 0007700 331.2152 28.8636 14.82680926719592 LO-19 1 20442U 90005G 16056.35523744 .00000049 00000-0 33998-4 0 9996 2 20442 98.5358 352.9186 0012781 117.0900 243.1590 14.32800099363195 AO-27 1 22825U 93061C 16056.77951629 .00000057 00000-0 39805-4 0 9993 2 22825 98.7455 12.4189 0007384 289.8589 70.1797 14.29940561169171 IO-26 1 22826U 93061D 16055.86997831 .00000052 00000-0 37379-4 0 9997 2 22826 98.7397 11.6424 0007868 282.9440 77.0863 14.30263235169209 GO-32 1 25397U 98043D 16055.70099794 .00000015 00000-0 25489-4 0 9990 2 25397 098.5549 003.6643 0000933 013.0592 347.0611 14.23584283915495 NO-44 1 26931U 01043C 16056.48473652 .00000005 00000-0 33842-4 0 9995 2 26931 67.0493 243.6675 0007451 270.9926 89.0322 14.30388381752026 SO-50 1 27607U 02058C 16056.21974585 .00000373 00000-0 73525-4 0 9995 2 27607 64.5553 145.9834 0077699 240.0042 119.3334 14.75077023708607 CO-55 1 27844U 03031E 16055.95205601 .00000117 00000-0 73085-4 0 9993 2 27844 098.6949 065.8558 0008662 292.8541 067.1721 14.21918388656312 CO-57 1 27848U 03031J 16056.73977251 .00000100 00000-0 65761-4 0 9995 2 27848 98.7046 66.6691 0008627 299.3506 60.6809 14.21549157656360 CO-65 1 32785U 08021C 16056.76359947 .00000764 00000-0 90111-4 0 9997 2 32785 97.6170 95.5831 0012084 313.3807 46.6402 14.87417520423918 PRISM 1 33493U 09002B 16056.87875072 .00002157 00000-0 20494-3 0 9992 2 33493 98.2297 271.6097 0014885 213.1154 146.9139 14.94572366384450 TISAT-1 1 36799U 10035E 16056.74579814 .00001475 00000-0 16058-3 0 9996 2 36799 98.0214 165.3815 0014022 95.6041 264.6775 14.89531483304687 ALMASAT-1 1 38078U 12006B 16056.92091295 .00023897 36159-5 34454-3 0 9991 2 38078 69.4539 313.1139 0415243 261.9644 93.4218 14.95761579212754 DUCHIFAT-1 1 40021U 14033M 16056.66973145 .00001463 00000-0 16117-3 0 9990 2 40021 97.9395 322.9359 0014826 73.8338 286.4509 14.89028961 91515 NANOSATCBR1 1 40024U 14033Q 16056.67440485 .00001268 00000-0 14247-3 0 9995 2 40024 97.9372 322.4754 0014024 73.7080 286.5677 14.88476706 91497 DTUSAT-2 1 40030U 14033W 16056.70765556 .00000979 00000-0 11411-3 0 9993 2 40030 97.9351 321.7025 0013565 69.1864 291.0804 14.87457197 91453 ANTELSAT 1 40034U 14033AA 16056.69569742 .00000849 00000-0 13554-3 0 9990 2 40034 97.9178 307.8284 0060672 27.7807 332.6614 14.73244998 90610 MET-2/21 1 22782U 93055A 16056.45137413 .00000019 00000-0 37063-5 0 9993 2 22782 82.5480 42.6944 0021865 334.1529 137.1220 13.83783775135623 NOAA-15 1 25338U 98030A 16056.79483772 .00000114 00000-0 47986-4 0 9990 2 25338 98.7825 60.7230 0011095 147.8549 212.3782 14.25705522925299 NOAA-18 1 28654U 05018A 16056.84168034 .00000060 00000-0 32853-4 0 9992 2 28654 99.1974 60.8517 0013870 333.1445 26.9476 14.12269419555069 NOAA-19 1 33591U 09005A 16056.84921683 .00000203 00000-0 11103-3 0 9998 2 33591 99.0253 12.7856 0014005 171.9082 188.2799 14.12044081363773 HUBBLE 1 20580U 90037B 16056.74858322 .00001391 00000-0 76436-4 0 9995 2 20580 28.4698 281.1514 0003033 80.1817 359.7377 15.08188663218110 ISS 1 25544U 98067A 16057.03575451 .00005428 00000-0 88735-4 0 9993 2 25544 51.6410 257.3136 0004488 169.4952 296.2988 15.54270362987537 CO-58 1 28895U 05043F 16056.46373040 .00000436 00000-0 93331-4 0 9995 2 28895 97.8247 236.1143 0016285 211.7643 148.2579 14.63109543550627 CAPE1 1 31130U 07012P 16055.86316911 .00000388 00000-0 93726-4 0 9990 2 31130 98.0193 15.6095 0095450 248.6573 110.4417 14.55840779469641 AAUSAT2 1 32788U 08021F 16056.11819517 .00001308 00000-0 13136-3 0 9999 2 32788 97.6187 102.6553 0010773 289.6808 70.3249 14.92893851424329 DO-64 1 32789U 08021G 16055.80937461 .00003012 00000-0 23154-3 0 9999 2 32789 97.6195 117.0042 0011396 289.0101 70.9889 15.02424999424976 CO-66 1 32791U 08021J 16056.07414300 .00000991 00000-0 10941-3 0 9997 2 32791 97.6182 97.7005 0012360 304.9531 55.0526 14.89548761423951 RS-30 1 32953U 08025A 16056.68483358 .00000010 00000-0 -13620-7 0 9991 2 32953 82.5052 176.6033 0018329 245.1892 114.7279 12.43067212352106 JUGNU 1 37839U 11058B 16056.49059428 .00000361 00000-0 50558-4 0 9991 2 37839 19.9614 106.8417 0018871 318.6648 194.3816 14.12524473226072 SRMSAT 1 37841U 11058D 16056.50260904 .00000348 00000-0 46100-4 0 9992 2 37841 19.9714 138.6434 0011684 234.2448 244.4856 14.10526348225750 AO-71 1 37854U 11061E 16056.71030749 .00007468 00000-0 42467-3 0 9996 2 37854 101.7066 42.5896 0176262 45.4187 316.1255 15.01180795235210 HRBE 1 37855U 11061F 16055.84767723 .00006183 00000-0 34599-3 0 9999 2 37855 101.7185 39.4548 0190050 51.4635 310.3439 15.00065723234994 HORYU-2 1 38340U 12025D 16055.88107111 .00000811 00000-0 12898-3 0 9993 2 38340 98.3454 37.8733 0012230 19.0921 341.0743 14.74871883202775 RS-40 1 38735U 12041C 16056.66159433 .00000040 00000-0 21992-3 0 9999 2 38735 82.4734 261.9242 0016932 351.0854 8.9922 12.42571707162396 BEESAT-3 1 39134U 13015E 16056.67568363 .00005204 00000-0 27577-3 0 9994 2 39134 64.8733 324.7867 0012410 235.8914 124.1542 15.15090984157060 BEESAT-2 1 39136U 13015G 16056.64806575 .00003113 00000-0 17530-3 0 9998 2 39136 64.8734 329.6422 0011844 232.1162 127.9400 15.12933026156972 ZACUBE-1 1 39417U 13066B 16056.73478291 .00000699 00000-0 95799-4 0 9996 2 39417 97.6954 114.3325 0060509 31.2564 329.2224 14.80250018122138 TRITON-1 1 39427U 13066M 16056.14827750 .00000561 00000-0 98211-4 0 9990 2 39427 97.6815 96.5892 0116413 79.1433 282.2848 14.67070033120946 GOMX-1 1 39430U 13066Q 16056.81528028 .00000547 00000-0 10858-3 0 9998 2 39430 97.6802 86.2564 0154006 110.0488 251.7353 14.58471681120343 LO-74 1 39440U 13066AA 16056.68322396 .00000671 00000-0 10159-3 0 9996 2 39440 97.6894 107.4504 0082363 48.7667 312.0602 14.75023816121696 SPROUT 1 39770U 14029E 16056.71984844 .00002149 00000-0 25811-3 0 9991 2 39770 97.8690 155.2783 0010859 95.2157 265.0292 14.84987194 95241 EO-80 1 40032U 14033Y 16056.72866504 .00000991 00000-0 11566-3 0 9997 2 40032 97.9359 321.7339 0013543 69.2880 290.9786 14.87388590 91453 VELOX-1 1 40057U 14034E 16056.84885072 .00001114 00000-0 16744-3 0 9990 2 40057 98.1973 143.9743 0012095 143.1757 217.0267 14.76516191 89307 DAURIA DX 1 1 40071U 14037C 16056.83372916 .00000501 00000-0 72482-4 0 9997 2 40071 98.3344 143.4135 0009274 139.8516 220.3369 14.80725665 88321 UKUBE-1 1 40074U 14037F 16056.87023710 .00001029 00000-0 13413-3 0 9993 2 40074 98.3376 145.1261 0005510 139.5363 220.6222 14.82879635 88425 HODOYOSHI-1 1 40299U 14070B 16056.91219943 .00002027 00000-0 94797-4 0 9993 2 40299 97.4364 140.2671 0012849 330.7993 151.4158 15.20861754 72360 CHUBUSAT-1 1 40300U 14070C 16056.87447318 .00002404 00000-0 11652-3 0 9997 2 40300 97.4328 138.7741 0020746 334.6500 117.3326 15.19322670 72270 QSAT-EOS 1 40301U 14070D 16056.90861083 .00004164 00000-0 19379-3 0 9990 2 40301 97.4279 138.0408 0029330 333.1484 135.7141 15.20110794 72242 FIREBIRD FU3 1 40377U 15003B 16056.76284774 .00008223 00000-0 37889-3 0 9996 2 40377 99.0855 142.4086 0148419 140.5784 220.6355 15.11267453 58797 FIREBIRD FU4 1 40378U 15003C 16056.75994414 .00008148 00000-0 37499-3 0 9998 2 40378 99.0856 142.4152 0148660 140.5349 220.6818 15.11280332 58793 GRIFEX 1 40379U 15003D 16056.70680165 .00006961 00000-0 33247-3 0 9997 2 40379 99.0867 141.8288 0151707 143.3596 217.8119 15.09791247 58757 NO-84 1 40654U 15025X 16056.34846200 .00023152 00000-0 50692-3 0 00446 2 40654 054.9920 195.7014 0220641 152.4462 208.8475 15.22340079006830 NO-83 1 40655U 15025X 16056.37979505 .00035460 00000-0 72743-3 0 00485 2 40655 054.9853 192.5276 0207576 153.3608 207.8311 15.25931319006851 DEORBITSAIL 1 40719U 15032E 16056.23759044 .00001210 00000-0 18594-3 0 9998 2 40719 98.0308 308.7902 0015470 238.1436 121.8267 14.75299054 33834 NUDT-PHONESAT 1 40900U 15049B 16056.86886755 .00005680 00000-0 30110-3 0 9990 2 40900 97.4470 66.6637 0017539 85.7596 34.3100 15.15635593 24050 XW-2D 1 40907U 15049J 16056.72768067 .00002129 00000-0 12344-3 0 9991 2 40907 97.4509 66.1772 0017096 66.2179 50.9207 15.13123022 23995 XW-2F 1 40910U 15049M 16056.90778631 .00003237 00000-0 18436-3 0 9992 2 40910 97.4541 66.4319 0018229 64.5936 340.7010 15.13381206 23910 XW-2B 1 40911U 15049N 16056.79004728 .00002159 00000-0 12514-3 0 9992 2 40911 97.4554 66.3416 0016942 66.2473 37.6780 15.13122178 23903 DCBB 1 40912U 15049P 16056.86557964 .00003650 00000-0 19686-3 0 9990 2 40912 97.4546 66.8342 0018570 62.6660 56.6473 15.15249679 23947 TW-1C 1 40926U 15051B 16056.77548694 .00010984 00000-0 33470-3 0 9993 2 40926 97.2896 95.0167 0017228 91.7542 13.5630 15.33992053 23519 TW-1A 1 40928U 15051D 16056.72300781 .00004901 00000-0 16010-3 0 9996 2 40928 97.2844 94.6569 0016461 105.8344 348.8110 15.32077007 23496 IO-86 1 40931U 15052B 16056.53991762 .00000815 00000-0 24633-4 0 9996 2 40931 6.0008 38.1835 0014336 325.7778 34.1372 14.76428971 22257 AAUSat-5 1 40948U 98067GZ 16056.73855326 .00344110 00000-0 11259-2 0 9995 2 40948 51.6321 244.9456 0009251 220.5060 139.5755 15.89759563 22446 GomX-3 1 40949U 98067HA 16056.75955164 .00038938 00000-0 35431-3 0 9996 2 40949 51.6371 251.1860 0006543 171.2138 188.8974 15.67519131 22373 LQSat 1 40958U 15057A 16056.87624960 .00000245 00000-0 46135-4 0 9998 2 40958 98.0243 133.2042 0018842 149.9854 210.2414 14.72818965 20852 AO-85 1 40967U 15058D 16056.09300828 .00001180 00000-0 13945-3 0 00494 2 40967 064.7764 228.7425 0214163 240.0963 117.8716 14.74779628006599 ATHENOXAT-1 1 41168U 15077C 16056.25498471 .00005064 00000-0 26867-3 0 9995 2 41168 14.9920 55.3143 0013917 241.1590 223.2831 15.09158148 10667 AGGIESAT4 1 41313U 98067HP 16056.10765237 .00014046 00000-0 20790-3 0 9997 2 41313 51.6535 261.8324 0006832 155.1315 205.0007 15.55550133 4107 ChubuSat-2 1 41338U 16012B 16055.01003277 .00001284 00000-0 95952-4 0 9995 2 41338 31.0039 274.4932 0014468 357.6140 2.4426 14.99202446 1007 ChubuSat-3 1 41339U 16012C 16055.00896597 .00001221 00000-0 90354-4 0 9992 2 41339 31.0105 274.4845 0014021 3.2788 356.7922 14.99444249 972 /EX